Regional Weather Roundup
Issued by NWS

Home | Current Version | Previous Version | Graphics & Text | Print | Product List | Glossary On
Versions: 1 2 3 4 5 6 7 8 9 10 11 12 13 14 15 16 17 18 19 20 21 22 23 24 25 26 27 28
000
ASUS45 KTFX 191710
RWRMT
MONTANA REGIONAL WEATHER ROUNDUP
NATIONAL WEATHER SERVICE GREAT FALLS MT
1000 AM MST SUN FEB 19 2017

NOTE: "FAIR" INDICATES FEW OR NO CLOUDS BELOW 12000 FEET WITH NO
SIGNIFICANT WEATHER AND/OR OBSTRUCTIONS TO VISIBILITY.

MTZ001>007-043-191800-
WEST OF THE DIVIDE

CITY           SKY/WX    TMP DP  RH WIND       PRES   REMARKS
KALISPELL      PTSUNNY   38  34  85 CALM      29.49R
MISSOULA       PTSUNNY   36  33  89 SE3       29.52R
BUTTE          CLOUDY    35  29  78 SW5       29.51R
MULLAN PASS    LGT SNOW  28  27  96 S8G16     29.44R FOG     WCI  20
ANACONDA         N/A     36  32  87 CALM      29.49S
DEER LODGE       N/A     37  34  87 W6        29.52R
EUREKA           N/A     36  32  87 SE8       29.47S WCI  29
HAMILTON         N/A     37  32  81 E8        29.52R WCI  31
LIBBY            N/A     34  34 100 CALM      29.50R
$$

MTZ008-052>055-191800-
SOUTHWEST MONTANA

CITY           SKY/WX    TMP DP  RH WIND       PRES   REMARKS
BOZEMAN        CLOUDY    36  32  85 NW9       29.49R WCI  29
DILLON         CLOUDY    34  32  92 W3        29.52R
W YELLOWSTONE  CLOUDY    32  30  93 SW15      29.58R FOG     WCI  22
ENNIS          CLOUDY    41  28  60 S21G30    29.55R
THREE FORKS      N/A     40  -2  17 NW15      29.56R
$$

MTZ009-010-012-014-046-048-049-054-191800-
EAST SLOPES AND CENTRAL MONTANA

CITY           SKY/WX    TMP DP  RH WIND       PRES   REMARKS
CUT BANK       PTSUNNY   39  31  72 W13       29.41R WCI  31
GREAT FALLS    MOSUNNY   50  30  46 SW22      29.42R
MALMSTROM AFB  MOSUNNY   48  30  49 SW24G30   29.43R
HELENA         CLOUDY    37  35  92 E5        29.47R
AUGUSTA          N/A     43  28  56 S8        29.41S
BOWMANS CRNR     N/A     43  28  54 SW13      29.42R
CHOTEAU          N/A     46  28  49 SW8       29.42S
POWER            N/A     45  30  57 SW15      29.41R
RAYNESFORD     PTSUNNY   47  31  54 W12       29.44R
ULM              N/A     48  32  52 MISG      29.44R
$$

MTZ011-013-016-021-045-047-050-051-191800-
NORTH CENTRAL MONTANA

CITY           SKY/WX    TMP DP  RH WIND       PRES   REMARKS
HAVRE          CLOUDY    33  31  92 CALM      29.43R
LEWISTOWN      MOSUNNY   48  33  56 N6        29.43S
N BAR RANCH    PTSUNNY   50  30  46 SW7       29.44F
CHINOOK          N/A     34  32  93 E5        29.44R
DENTON         CLOUDY    44  36  73 SE7       29.40R
FORT BENTON      N/A     37  32  81 MISG      29.42R
GEYSER         PTSUNNY   45  34  65 W15       29.41S
GRASS RANGE    CLOUDY    51  33  49 W12       29.38S
JUDITH GAP       N/A     42  33  72 SW10      29.44S
ROY            PTSUNNY   41  34  75 MISG      29.41R
STANFORD       CLOUDY    45  33  62 NW12      29.43R
WINIFRED       PTSUNNY   47  36  66 W9        29.43R
$$

MTZ017>020-022>027-061-062-191800-
NORTHEAST MONTANA

CITY           SKY/WX    TMP DP  RH WIND       PRES   REMARKS
GLASGOW        FOG       32  30  92 SE13G21   29.46S VSB 1   WCI  22
JORDAN           N/A     41  34  76 E5        29.43R
SIDNEY         CLOUDY    35  34  96 NE6       29.50F FOG     WCI  30
WOLF POINT     FOG       33  32  96 E10       29.51R VSB 1/2 WCI  25
PLENTYWOOD       N/A     30  30 100 E13       29.53S VSB 1/2 WCI  20
POPLAR           N/A     32  30  93 E10       29.50F VSB 1/2 WCI  24
$$

MTZ028>42-056>058-191800-
SOUTHCENTRAL AND SOUTHEAST MONTANA

CITY           SKY/WX    TMP DP  RH WIND       PRES   REMARKS
BAKER          CLOUDY    39  34  82 E7        29.47S
BILLINGS       CLOUDY    45  33  63 W10       29.44F
LIVINGSTON     CLOUDY    50  30  46 SW18G26   29.45S
MILES CITY     CLOUDY    36  31  82 NE6       29.44F WCI  31
BIG TIMBER     SUNNY     43  34  70 W5        29.48S
FORSYTH          N/A     36  34  93 CALM      29.43F
HARLOWTON        N/A     39  33  78 CALM      29.45S
LAUREL           N/A     48  26  42 S14       29.48F
$$

REGIONAL REPORTS...DAKOTAS

CITY           SKY/WX    TMP DP  RH WIND       PRES   REMARKS
WILLISTON      CLOUDY    34  32  92 E13       29.52F FOG     WCI  25
MINOT          CLOUDY    36  33  89 E12       29.58F FOG     WCI  28
DICKINSON      CLOUDY    37  35  92 E7        29.47F WCI  32
BEACH            N/A    N/A N/A N/A MISG        N/A
CROSBY         CLOUDY    32  32 100 E16       29.58F WCI  21
TIOGA          FOG       32  32 100 E18G26    29.53F VSB 1/4 WCI  20
WATFORD CITY   CLOUDY    32  32 100 SE9       29.52S WCI  24
BISMARCK       CLOUDY    39  34  82 E10       29.57F
GRAND FORKS    CLOUDY    39  32  76 SE13      29.74F WCI  31
FARGO          CLOUDY    47  39  74 SE17G23   29.72F
BUFFALO SD       N/A     54  37  52 S10       29.42F
RAPID CITY     CLOUDY    55  34  45 SE5       29.53F
$$

REGIONAL REPORTS...WYOMING/IDAHO/WASHINGTON

CITY           SKY/WX    TMP DP  RH WIND       PRES   REMARKS
GILLETTE       CLOUDY    52  33  48 SW20G30   29.49F
SHERIDAN       CLOUDY    40  31  70 W7        29.43F
BUFFALO WY     CLOUDY    57  28  33 S21       29.47S
CODY           CLOUDY    48  28  46 W8G20     29.51R
YELLOWSTONE LA   N/A     31  29  92 VRB3      29.61F
IDAHO FALLS    LGT RAIN  33  33 100 S14       29.65S WCI  23
SALMON         CLOUDY    36  34  93 CALM      29.54R
BOISE          CLOUDY    45  38  76 SE9       29.60F
SPOKANE        FOG       33  32  96 S7        29.50R VSB 1/2 WCI  27
$$

REGIONAL REPORTS...ALBERTA

CITY           SKY/WX    TMP DP  RH WIND       PRES   REMARKS
EDMONTON       CLOUDY    34  32  93 S2        29.37S
CALGARY        CLOUDY    32  27  80 N2        29.36R
LETHBRIDGE     PTSUNNY   39  34  81 W13       29.38R WCI  32
MEDICINE HAT   CLOUDY    36  32  87 SW5       29.39R
WATERTON GATE    N/A     39  27  60 SW12        N/A  WCI  32
CARDSTON         N/A     39  28  65 E2          N/A
MILK RIVER       N/A     39  34  81 NW6         N/A
ONEFOUR          N/A     32  30  93 E10         N/A  WCI  24
$$

REGIONAL REPORTS...SASKATCHEWAN

CITY           SKY/WX    TMP DP  RH WIND       PRES   REMARKS
SWIFT CURRENT  MOSUNNY   34  32  93 SE13G20   29.41S WCI  25
REGINA         CLOUDY    34  28  80 E21G30    29.57F WCI  22
SASKATOON      CLOUDY    34  28  80 SE18      29.56F WCI  23
CYPRESS HILLS    N/A     30  28  93 S7          N/A  WCI  23
ROCKGLEN         N/A     30  30 100 SE12        N/A  WCI  21
ASSINIBOIA       N/A     34  32  93 SE5         N/A
$$




USA.gov is the U.S. government's official web portal to all federal, state and local government web resources and services.